User: anonymous
Location: Caltech
(34.1382°N, 118.1253°W)
Time: 07:53:21
(UTC-07:00)
Language:

NOSS 3-2 (A) - Orbit

View from above orbital plane
View from above orbital plane
View from above satellite
View from above satellite

Ground track
Ground track

The orbit data is extracted from the following two-line orbital elements,

1 28095U 03054A   14206.89752055 0.00000000  00000-0  00000-0 0    03
2 28095  63.4290 129.7273 0213000 358.0055   1.9945 13.41286289    05
Epoch (UTC): 25 July 2014 21:32:25
Eccentricity: 0.0213000
inclination: 63.4290°
perigee height: 945 km
apogee height: 1264 km
right ascension of ascending node: 129.7273°
argument of perigee: 358.0055°
revolutions per day: 13.41286289
mean anomaly at epoch: 1.9945°
orbit number at epoch: 0

The dashed part of the orbit path shows where the satellite is in the earth's shadow,  

DLR